This is the latest recevied weather packets stored in our database for station/object KI4NG. If no packets are shown the sender has not sent any weather packets the latest 10 day(s).
| Time | Temp. | Humidity | Pressure | Rain* | Wind** | Luminosity | Snow |
|---|---|---|---|---|---|---|---|
| 1777747092 | 14.44° C | 48% | 1016.4 hPa | 0 mm | - | 832 W/m² | - |
| 1777746788 | 13.89° C | 51% | 1016.7 hPa | 0 mm | - | 419 W/m² | - |
| 1777746484 | 13.89° C | 53% | 1016.5 hPa | 0 mm | - | 807 W/m² | - |
| 1777746179 | 13.33° C | 52% | 1016.6 hPa | 0 mm | - | 316 W/m² | - |
| 1777745875 | 13.33° C | 51% | 1016.7 hPa | 0 mm | - | 228 W/m² | - |
| 1777745570 | 14.44° C | 50% | 1016.4 hPa | 0 mm | - | 223 W/m² | - |
| 1777745267 | 15° C | 48% | 1016.6 hPa | 0 mm | - | 334 W/m² | - |
| 1777744964 | 15° C | 52% | 1016.6 hPa | 0 mm | - | 968 W/m² | - |
| 1777744664 | 13.89° C | 50% | 1016.5 hPa | 0 mm | - | 648 W/m² | - |
| 1777744358 | 13.89° C | 51% | 1016.5 hPa | 0 mm | - | 756 W/m² | - |
| 1777744056 | 13.89° C | 51% | 1016.8 hPa | 0 mm | - | 328 W/m² | - |
| 1777743753 | 14.44° C | 49% | 1016.5 hPa | 0 mm | - | 417 W/m² | - |
| 1777743450 | 14.44° C | 46% | 1016.7 hPa | 0 mm | - | 262 W/m² | - |
| 1777743147 | 13.89° C | 49% | 1016.7 hPa | 0 mm | - | 355 W/m² | - |
| 1777742845 | 15° C | 46% | 1016.8 hPa | 0 mm | - | 605 W/m² | - |
| 1777742541 | 14.44° C | 48% | 1016.8 hPa | 0 mm | - | 326 W/m² | - |
| 1777742237 | 15° C | 46% | 1016.8 hPa | 0 mm | - | 461 W/m² | - |
| 1777741934 | 15.56° C | 42% | 1016.8 hPa | 0 mm | - | 699 W/m² | - |
| 1777741631 | 15° C | 46% | 1016.7 hPa | 0 mm | - | 571 W/m² | - |
| 1777741328 | 15° C | 54% | 1017 hPa | 0 mm | - | 807 W/m² | - |
| 1777741024 | 13.89° C | 49% | 1016.9 hPa | 0 mm | - | 879 W/m² | - |
| 1777740721 | 13.89° C | 48% | 1017.1 hPa | 0 mm | - | 216 W/m² | - |
| 1777740417 | 14.44° C | 44% | 1017.2 hPa | 0 mm | - | 484 W/m² | - |
| 1777740115 | 14.44° C | 44% | 1017.3 hPa | 0 mm | - | 966 W/m² | - |
| 1777739810 | 14.44° C | 46% | 1017.4 hPa | 0 mm | - | 335 W/m² | - |
* Rain latest hour (hover to see other rain measurements)
** Current wind speed in m/s (hover to see current wind gust speed)